H1 CPF 2 NER 2023 10 9 9 282 01 glonass143 H2 2007501 9143 46805 2023 10 9 0 0 0 2023 10 12 23 45 0 900 1 1 0 0 0 1 H9 10 0 60226 0.00000 0 23097318.107 9379912.734 5375732.820 10 0 60226 900.00000 0 23579661.975 9455699.070 2206685.411 10 0 60226 1800.00000 0 23702281.603 9348301.785 -1005267.960 10 0 60226 2700.00000 0 23442461.810 9108093.163 -4197668.730 10 0 60226 3600.00000 0 22790201.104 8789618.040 -7308417.983 10 0 60226 4500.00000 0 21748749.428 8449060.610 -10276991.359 10 0 60226 5400.00000 0 20334605.535 8141649.986 -13045623.925 10 0 60226 6300.00000 0 18576973.146 7919115.406 -15560441.123 10 0 60226 7200.00000 0 16516698.099 7827299.866 -17772512.971 10 0 60226 8100.00000 0 14204730.612 7904034.166 -19638810.483 10 0 60226 9000.00000 0 11700176.825 8177362.109 -21123045.368 10 0 60226 9900.00000 0 9068021.079 8664192.660 -22196376.569 10 0 60226 10800.00000 0 6376614.031 9369436.495 -22837970.034 10 0 60226 11700.00000 0 3695031.351 10285663.861 -23035401.155 10 0 60226 12600.00000 0 1090412.943 11393298.503 -22784892.419 10 0 60226 13500.00000 0 -1374606.815 12661339.740 -22091382.095 10 0 60226 14400.00000 0 -3644271.432 14048582.542 -20968423.032 10 0 60226 15300.00000 0 -5671779.266 15505284.432 -19437913.889 10 0 60226 16200.00000 0 -7420979.691 16975209.293 -17529668.277 10 0 60226 17100.00000 0 -8867619.099 18397962.293 -15280830.378 10 0 60226 18000.00000 0 -10000086.259 19711517.858 -12735148.564 10 0 60226 18900.00000 0 -10819627.604 20854834.510 -9942121.264 10 0 60226 19800.00000 0 -11340025.222 21770446.690 -6956031.807 10 0 60226 20700.00000 0 -11586752.833 22406924.626 -3834891.206 10 0 60226 21600.00000 0 -11595646.943 22721098.830 -639309.655 10 0 60226 22500.00000 0 -11411150.635 22679955.757 2568681.122 10 0 60226 23400.00000 0 -11084205.283 22262124.965 5726831.522 10 0 60226 24300.00000 0 -10669880.120 21458895.350 8773880.204 10 0 60226 25200.00000 0 -10224840.407 20274717.779 11650739.272 10 0 60226 26100.00000 0 -9804761.421 18727173.009 14301635.604 10 0 60226 27000.00000 0 -9461797.534 16846406.062 16675186.507 10 0 60226 27900.00000 0 -9242213.026 14674050.364 18725389.397 10 0 60226 28800.00000 0 -9184274.274 12261686.117 20412506.904 10 0 60226 29700.00000 0 -9316491.879 9668896.443 21703831.077 10 0 60226 30600.00000 0 -9656286.528 6961001.296 22574312.628 10 0 60226 31500.00000 0 -10209134.724 4206562.308 23007043.697 10 0 60226 32400.00000 0 -10968230.583 1474760.966 22993585.279 10 0 60226 33300.00000 0 -11914678.479 -1167242.352 22534133.240 10 0 60226 34200.00000 0 -13018209.344 -3656860.132 21637519.585 10 0 60226 35100.00000 0 -14238391.683 -5938435.571 20321048.598 10 0 60226 36000.00000 0 -15526287.768 -7965309.651 18610170.315 10 0 60226 36900.00000 0 -16826486.771 -9701512.345 16537996.765 10 0 60226 37800.00000 0 -18079430.628 -11123008.229 14144669.323 10 0 60226 38700.00000 0 -19223935.834 -12218445.086 11476588.393 10 0 60226 39600.00000 0 -20199805.679 -12989374.533 8585519.451 10 0 60226 40500.00000 0 -20950423.160 -13449935.808 5527592.121 10 0 60226 41400.00000 0 -21425215.065 -13626016.266 2362211.273 10 0 60226 42300.00000 0 -21581882.737 -13553924.289 -849098.697 10 0 60226 43200.00000 0 -21388304.430 -13278631.032 -4043893.681 10 0 60226 44100.00000 0 -20824027.835 -12851655.822 -7160029.894 10 0 60226 45000.00000 0 -19881288.526 -12328685.351 -10136879.557 10 0 60226 45900.00000 0 -18565510.064 -11767028.218 -12916517.742 10 0 60226 46800.00000 0 -16895263.524 -11223013.436 -15444856.408 10 0 60226 47700.00000 0 -14901687.112 -10749443.925 -17672702.771 10 0 60226 48600.00000 0 -12627389.440 -10393213.564 -19556720.870 10 0 60226 49500.00000 0 -10124881.834 -10193189.286 -21060277.290 10 0 60226 50400.00000 0 -7454604.910 -10178448.289 -22154154.474 10 0 60226 51300.00000 0 -4682631.606 -10366945.180 -22817117.901 10 0 60226 52200.00000 0 -1878142.262 -10764665.509 -23036326.395 10 0 60226 53100.00000 0 889223.224 -11365301.474 -22807577.967 10 0 60226 54000.00000 0 3552026.259 -12150463.406 -22135386.851 10 0 60226 54900.00000 0 6047593.218 -13090418.070 -21032890.637 10 0 60226 55800.00000 0 8320375.847 -14145322.539 -19521589.635 10 0 60226 56700.00000 0 10324011.088 -15266901.573 -17630923.812 10 0 60226 57600.00000 0 12022995.656 -16400497.768 -15397695.706 10 0 60226 58500.00000 0 13393906.839 -17487408.029 -12865350.691 10 0 60226 59400.00000 0 14426120.093 -18467407.891 -10083128.716 10 0 60226 60300.00000 0 15121995.063 -19281357.264 -7105104.133 10 0 60226 61200.00000 0 15496523.942 -19873777.753 -3989132.499 10 0 60226 62100.00000 0 15576458.626 -20195292.908 -795725.013 10 0 60226 63000.00000 0 15398954.918 -20204828.543 2413127.293 10 0 60226 63900.00000 0 15009792.275 -19871480.394 5575156.526 10 0 60226 64800.00000 0 14461245.197 -19175970.449 8629024.539 10 0 60226 65700.00000 0 13809696.856 -18111630.567 11515509.731 10 0 60226 66600.00000 0 13113096.080 -16684871.905 14178651.086 10 0 60226 67500.00000 0 12428365.115 -14915120.137 16566827.578 10 0 60226 68400.00000 0 11808867.334 -12834218.713 18633752.530 10 0 60226 69300.00000 0 11302041.255 -10485324.491 20339364.275 10 0 60226 70200.00000 0 10947300.055 -7921340.943 21650596.626 10 0 60226 71100.00000 0 10774284.489 -5202953.193 22542014.996 10 0 60226 72000.00000 0 10801542.307 -2396345.395 22996306.535 10 0 60226 72900.00000 0 11035689.499 429306.041 23004615.276 10 0 60226 73800.00000 0 11471088.666 3204460.745 22566716.078 10 0 60226 74700.00000 0 12090058.442 5861856.498 21691023.922 10 0 60226 75600.00000 0 12863605.794 8339056.848 20394437.997 10 0 60226 76500.00000 0 13752651.377 10580799.613 18702022.940 10 0 60226 77400.00000 0 14709697.408 12541049.581 16646532.489 10 0 60226 78300.00000 0 15680868.980 14184670.744 14267783.780 10 0 60226 79200.00000 0 16608243.772 15488648.854 11611893.350 10 0 60226 80100.00000 0 17432372.653 16442813.577 8730388.781 10 0 60226 81000.00000 0 18094885.211 17050030.263 5679212.494 10 0 60226 81900.00000 0 18541070.189 17325853.470 2517636.638 10 0 60226 82800.00000 0 18722321.357 17297657.041 -692889.898 10 0 60226 83700.00000 0 18598344.654 17003277.662 -3889939.690 10 0 60226 84600.00000 0 18139032.244 16489229.585 -7011326.336 10 0 60226 85500.00000 0 17325922.956 15808566.442 -9996320.878 10 0 60227 0.00000 0 16153186.213 15018481.317 -12786840.304 10 0 60227 900.00000 0 14628085.832 14177746.854 -15328585.619 10 0 60227 1800.00000 0 12770904.550 13344105.542 -17572102.854 10 0 60227 2700.00000 0 10614329.247 12571719.792 -19473750.788 10 0 60227 3600.00000 0 8202323.216 11908791.226 -20996552.441 10 0 60227 4500.00000 0 5588531.487 11395449.741 -22110915.156 10 0 60227 5400.00000 0 2834285.427 11062001.746 -22795205.167 10 0 60227 6300.00000 0 6289.489 10927611.456 -23036165.736 10 0 60227 7200.00000 0 -2825913.770 10999470.679 -22829171.141 10 0 60227 8100.00000 0 -5592595.209 11272491.747 -22178311.985 10 0 60227 9000.00000 0 -8226497.274 11729536.100 -21096310.595 10 0 60227 9900.00000 0 -10665388.737 12342168.431 -19604268.495 10 0 60227 10800.00000 0 -12854410.432 13071904.137 -17731251.130 10 0 60227 11700.00000 0 -14748115.239 13871897.071 -15513718.099 10 0 60227 12600.00000 0 -16312118.362 14688996.068 -12994810.125 10 0 60227 13500.00000 0 -17524290.307 15466083.166 -10223506.735 10 0 60227 14400.00000 0 -18375444.168 16144594.645 -7253671.151 10 0 60227 15300.00000 0 -18869489.902 16667118.243 -4143001.161 10 0 60227 16200.00000 0 -19023050.759 16979956.792 -951906.548 10 0 60227 17100.00000 0 -18864559.431 17035549.899 2257664.853 10 0 60227 18000.00000 0 -18432873.342 16794651.397 5423429.427 10 0 60227 18900.00000 0 -17775468.543 16228170.585 8483974.841 10 0 60227 19800.00000 0 -16946289.180 15318599.536 11379948.434 10 0 60227 20700.00000 0 -16003343.743 14060966.143 14055203.937 10 0 60227 21600.00000 0 -15006149.620 12463272.498 16457884.576 10 0 60227 22500.00000 0 -14013133.511 10546399.692 18541422.068 10 0 60227 23400.00000 0 -13079096.773 8343482.292 20265432.754 10 0 60227 24300.00000 0 -12252851.786 5898777.718 21596494.273 10 0 60227 25200.00000 0 -11575128.003 3266076.502 22508788.512 10 0 60227 26100.00000 0 -11076835.006 506718.348 22984599.043 10 0 60227 27000.00000 0 -10777754.920 -2312705.001 23014653.954 10 0 60227 27900.00000 0 -10685718.708 -5122866.212 22598307.687 10 0 60227 28800.00000 0 -10796300.797 -7854335.123 21743558.321 10 0 60227 29700.00000 0 -11093045.011 -10440219.993 20466899.607 10 0 60227 30600.00000 0 -11548212.752 -12818708.820 18793009.959 10 0 60227 31500.00000 0 -12124022.591 -14935406.106 16754283.536 10 0 60227 32400.00000 0 -12774329.833 -16745368.636 14390211.512 10 0 60227 33300.00000 0 -13446676.038 -18214755.947 11746624.445 10 0 60227 34200.00000 0 -14084622.661 -19322026.859 8874809.574 10 0 60227 35100.00000 0 -14630270.643 -20058632.143 5830519.407 10 0 60227 36000.00000 0 -15026859.535 -20429174.356 2672890.451 10 0 60227 36900.00000 0 -15221335.906 -20451028.123 -536706.998 10 0 60227 37800.00000 0 -15166781.694 -20153436.996 -3735865.387 10 0 60227 38700.00000 0 -14824598.738 -19576125.131 -6862358.964 10 0 60227 39600.00000 0 -14166355.819 -18767482.736 -9855360.883 10 0 60227 40500.00000 0 -13175218.711 -17782402.413 -12656633.782 10 0 60227 41400.00000 0 -11846901.386 -16679858.387 -15211669.855 10 0 60227 42300.00000 0 -10190096.811 -15520331.547 -17470757.400 10 0 60227 43200.00000 0 -8226367.896 -14363189.669 -19389952.551 10 0 60227 44100.00000 0 -5989502.018 -13264133.920 -20931936.931 10 0 60227 45000.00000 0 -3524355.222 -12272819.736 -22066744.428 10 0 60227 45900.00000 0 -885233.720 -11430752.478 -22772343.066 10 0 60227 46800.00000 0 1866120.325 -10769546.443 -23035060.968 10 0 60227 47700.00000 0 4662855.163 -10309620.162 -22849848.480 10 0 60227 48600.00000 0 7435551.502 -10059382.395 -22220371.823 10 0 60227 49500.00000 0 10114874.815 -10014942.333 -21158936.816 10 0 60227 50400.00000 0 12634227.976 -10160355.445 -19686244.523 10 0 60227 51300.00000 0 14932294.407 -10468393.742 -17830983.821 10 0 60227 52200.00000 0 16955366.525 -10901807.215 -15629268.988 10 0 60227 53100.00000 0 18659363.281 -11415022.496 -13123933.401 10 0 60227 54000.00000 0 20011453.616 -11956206.412 -10363693.192 10 0 60227 54900.00000 0 20991219.181 -12469606.787 -7402197.240 10 0 60227 55800.00000 0 21591308.917 -12898071.152 -4296982.169 10 0 60227 56700.00000 0 21817559.435 -13185636.596 -1108352.869 10 0 60227 57600.00000 0 21688577.508 -13280081.047 2101789.486 10 0 60227 58500.00000 0 21234803.497 -13135327.988 5271148.874 10 0 60227 59400.00000 0 20497096.272 -12713602.849 8338241.843 10 0 60227 60300.00000 0 19524900.056 -11987249.901 11243587.386 10 0 60227 61200.00000 0 18374071.029 -10940132.813 13930856.273 10 0 60227 62100.00000 0 17104455.454 -9568559.548 16347957.812 10 0 60227 63000.00000 0 15777321.193 -7881692.234 18448043.472 10 0 60227 63900.00000 0 14452750.278 -5901424.080 20190408.502 10 0 60227 64800.00000 0 13187101.496 -3661727.571 21541274.841 10 0 60227 65700.00000 0 12030648.729 -1207499.958 22474440.915 10 0 60227 66600.00000 0 11025493.261 1407047.142 22971786.427 10 0 60227 67500.00000 0 10203836.755 4120388.549 23023622.886 10 0 60227 68400.00000 0 9586686.542 6865995.148 22628883.381 10 0 60227 69300.00000 0 9183046.941 9574857.958 21795147.891 10 0 60227 70200.00000 0 8989630.238 12178123.365 20538503.291 10 0 60227 71100.00000 0 8991099.366 14609731.375 18883240.136 10 0 60227 72000.00000 0 9160832.283 16808948.317 16861391.212 10 0 60227 72900.00000 0 9462176.257 18722689.404 14512119.794 10 0 60227 73800.00000 0 9850139.642 20307534.923 11880968.407 10 0 60227 74700.00000 0 10273450.241 21531356.075 9018981.776 10 0 60227 75600.00000 0 10676893.580 22374482.540 5981720.230 10 0 60227 76500.00000 0 11003832.309 22830362.709 2828182.279 10 0 60227 77400.00000 0 11198799.869 22905688.709 -380342.774 10 0 60227 78300.00000 0 11210058.025 22619980.838 -3581469.647 10 0 60227 79200.00000 0 10992009.086 22004648.863 -6712935.586 10 0 60227 80100.00000 0 10507359.485 21101569.876 -9713818.082 10 0 60227 81000.00000 0 9728941.812 19961242.972 -12525727.248 10 0 60227 81900.00000 0 8641116.794 18640598.996 -15093948.829 10 0 60227 82800.00000 0 7240694.524 17200558.293 -17368514.784 10 0 60227 83700.00000 0 5537334.686 15703439.977 -19305180.038 10 0 60227 84600.00000 0 3553407.609 14210332.359 -20866286.071 10 0 60227 85500.00000 0 1323320.860 12778535.651 -22021494.367 10 0 60228 0.00000 0 -1107661.140 11459184.770 -22748375.559 10 0 60228 900.00000 0 -3685057.228 10295151.413 -23032843.387 10 0 60228 1800.00000 0 -6347198.163 9319314.919 -22869424.537 10 0 60228 2700.00000 0 -9027564.061 8553271.557 -22261360.859 10 0 60228 3600.00000 0 -11657330.480 8006537.368 -21220541.292 10 0 60228 4500.00000 0 -14168018.754 7676276.315 -19767265.646 10 0 60228 5400.00000 0 -16494140.470 7547564.101 -17929845.025 10 0 60228 6300.00000 0 -18575726.458 7594175.427 -15744046.806 10 0 60228 7200.00000 0 -20360635.425 7779860.367 -13252395.140 10 0 60228 8100.00000 0 -21806546.692 8060055.031 -10503340.662 10 0 60228 9000.00000 0 -22882554.583 8383953.404 -7550315.655 10 0 60228 9900.00000 0 -23570298.785 8696852.100 -4450693.244 10 0 60228 10800.00000 0 -23864584.378 8942668.307 -1264671.039 10 0 60228 11700.00000 0 -23773466.660 9066524.020 1945898.864 10 0 60228 12600.00000 0 -23317798.333 9017286.898 5118710.494 10 0 60228 13500.00000 0 -22530259.095 8749960.101 8192211.752 10 0 60228 14400.00000 0 -21453909.311 8227819.904 11106795.777 10 0 60228 15300.00000 0 -20140329.218 7424210.631 13805952.851 10 0 60228 16200.00000 0 -18647422.257 6323920.952 16237360.768 10 0 60228 17100.00000 0 -17036974.832 4924083.169 18353893.018 10 0 60228 18000.00000 0 -15372074.707 3234557.100 20114525.813 10 0 60228 18900.00000 0 -13714495.747 1277781.606 21485127.162 10 0 60228 19800.00000 0 -12122157.800 -911901.157 22439113.464 10 0 60228 20700.00000 0 -10646767.168 -3289421.833 22957961.598 10 0 60228 21600.00000 0 -9331735.378 -5800612.816 23031567.143 10 0 60228 22500.00000 0 -8210462.334 -8384223.894 22658442.070 10 0 60228 23400.00000 0 -7305054.853 -10974242.365 21845748.080 10 0 60228 24300.00000 0 -6625533.503 -13502422.779 20609164.605 10 0 60228 25200.00000 0 -6169560.528 -15900922.591 18972593.390 10 0 60228 26100.00000 0 -5922700.021 -18104935.211 16967704.528 10 0 60228 27000.00000 0 -5859199.398 -20055211.737 14633331.737 10 0 60228 27900.00000 0 -5943259.374 -21700366.796 12014727.558 10 0 60228 28800.00000 0 -6130739.099 -22998872.422 9162691.992 10 0 60228 29700.00000 0 -6371224.598 -23920656.523 6132590.778 10 0 60228 30600.00000 0 -6610373.061 -24448238.739 2983281.859 10 0 60228 31500.00000 0 -6792433.557 -24577355.613 -224029.143 10 0 60228 32400.00000 0 -6862836.897 -24317048.455 -3426982.003 10 0 60228 33300.00000 0 -6770744.146 -23689209.859 -6563279.824 10 0 60228 34200.00000 0 -6471444.726 -22727607.802 -9571907.350 10 0 60228 35100.00000 0 -5928501.308 -21476428.468 -12394325.095 10 0 60228 36000.00000 0 -5115549.302 -19988399.375 -14975615.239 10 0 60228 36900.00000 0 -4017673.422 -18322572.189 -17265556.144 10 0 60228 37800.00000 0 -2632301.809 -16541859.024 -19219604.055 10 0 60228 38700.00000 0 -969578.637 -14710426.267 -20799762.485 10 0 60228 39600.00000 0 947801.639 -12891055.833 -21975322.272 10 0 60228 40500.00000 0 3085292.543 -11142584.817 -22723458.004 10 0 60228 41400.00000 0 5397697.968 -9517530.888 -23029669.503 10 0 60228 42300.00000 0 7830829.147 -8060002.686 -22888060.165 10 0 60228 43200.00000 0 10323547.564 -6803982.136 -22301447.166 10 0 60228 44100.00000 0 12810109.099 -5772049.770 -21281301.796 10 0 60228 45000.00000 0 15222711.997 -4974605.355 -19847521.426 10 0 60228 45900.00000 0 17494142.843 -4409615.180 -18028037.795 10 0 60228 46800.00000 0 19560410.589 -4062895.213 -15858269.411 10 0 60228 47700.00000 0 21363259.145 -3908916.759 -13380428.845 10 0 60228 48600.00000 0 22852454.088 -3912099.340 -10642698.508 10 0 60228 49500.00000 0 23987748.557 -4028535.002 -7698291.028 10 0 60228 50400.00000 0 24740446.690 -4208070.193 -4604412.690 10 0 60228 51300.00000 0 25094499.947 -4396656.326 -1421150.296 10 0 60228 52200.00000 0 25047091.175 -4538868.955 1789696.731 10 0 60228 53100.00000 0 24608682.785 -4580488.449 4965815.993 10 0 60228 54000.00000 0 23802527.880 -4471032.658 8045590.081 10 0 60228 54900.00000 0 22663665.595 -4166134.212 10969289.304 10 0 60228 55800.00000 0 21237443.433 -3629661.799 13680226.088 10 0 60228 56700.00000 0 19577628.981 -2835495.669 16125848.905 10 0 60228 57600.00000 0 17744190.293 -1768882.239 18258754.991 10 0 60228 58500.00000 0 15800837.757 -427310.314 20037602.791 10 0 60228 59400.00000 0 13812429.879 1179128.535 21427907.212 10 0 60228 60300.00000 0 11842350.716 3027911.515 22402703.032 10 0 60228 61200.00000 0 9949967.631 5084782.041 22943064.309 10 0 60228 62100.00000 0 8188274.454 7304945.380 23038470.297 10 0 60228 63000.00000 0 6601817.325 9634714.222 22687011.081 10 0 60228 63900.00000 0 5224988.752 12013537.253 21895428.950 10 0 60228 64800.00000 0 4080760.211 14376327.913 20678994.416 10 0 60228 65700.00000 0 3179905.470 16655997.924 19061218.636 10 0 60228 66600.00000 0 2520746.603 18786091.286 17073406.972 10 0 60228 67500.00000 0 2089432.971 20703409.990 14754061.343 10 0 60228 68400.00000 0 1860741.223 22350522.487 12148141.887 10 0 60228 69300.00000 0 1799362.590 23678050.336 9306201.353 10 0 60228 70200.00000 0 1861623.082 24646637.290 6283408.257 10 0 60228 71100.00000 0 1997563.832 25228517.928 3138477.295 10 0 60228 72000.00000 0 2153293.315 25408619.443 -67472.281 10 0 60228 72900.00000 0 2273511.374 25185149.704 -3272107.959 10 0 60228 73800.00000 0 2304097.394 24569646.220 -6413101.252 10 0 60228 74700.00000 0 2194652.011 23586483.502 -9429346.538 10 0 60228 75600.00000 0 1900883.501 22271859.237 -12262156.903 10 0 60228 76500.00000 0 1386736.495 20672301.842 -14856412.876 10 0 60228 77400.00000 0 626171.624 18842762.284 -17161640.887 10 0 60228 78300.00000 0 -395480.509 16844370.623 -19132999.889 10 0 60228 79200.00000 0 -1680649.442 14741951.796 -20732156.593 10 0 60228 80100.00000 0 -3219176.899 12601405.196 -21928032.112 10 0 60228 81000.00000 0 -4988506.483 10487058.056 -22697405.633 10 0 60228 81900.00000 0 -6954403.949 8459103.434 -23025363.630 10 0 60228 82800.00000 0 -9072178.671 6571229.787 -22905586.257 10 0 60228 83700.00000 0 -11288355.765 4868540.697 -22340465.808 10 0 60228 84600.00000 0 -13542729.520 3385850.870 -21341055.330 10 0 60228 85500.00000 0 -15770712.722 2146428.603 -19926848.742 10 0 60229 0.00000 0 -17905883.922 1161236.008 -18125397.184 10 0 60229 900.00000 0 -19882627.704 428696.834 -15971768.186 10 0 60229 1800.00000 0 -21638755.084 -64998.741 -13507860.803 10 0 60229 2700.00000 0 -23117998.630 -345068.556 -10781586.921 10 0 60229 3600.00000 0 -24272275.384 -446827.059 -7845937.059 10 0 60229 4500.00000 0 -25063624.428 -413945.323 -4757948.129 10 0 60229 5400.00000 0 -25465738.151 -296357.027 -1577593.533 10 0 60229 6300.00000 0 -25465023.613 -147899.888 1633382.589 10 0 60229 7200.00000 0 -25061150.005 -23793.010 4812664.047 10 0 60229 8100.00000 0 -24267059.882 21942.590 7898570.749 10 0 60229 9000.00000 0 -23108444.226 -60989.159 10831252.782 10 0 60229 9900.00000 0 -21622703.830 -316792.182 13553847.250 10 0 60229 10800.00000 0 -19857440.832 -781470.856 16013575.703 10 0 60229 11700.00000 0 -17868543.650 -1481071.478 18162761.312 10 0 60229 12600.00000 0 -15717945.287 -2430346.953 19959746.652 10 0 60229 13500.00000 0 -13471148.228 -3631901.300 21369695.060 10 0 60229 14400.00000 0 -11194618.562 -5075850.567 22365260.809 10 0 60229 15300.00000 0 -8953157.103 -6740015.312 22927115.814 10 0 60229 16200.00000 0 -6807355.964 -8590637.784 23044323.240 10 0 60229 17100.00000 0 -4811245.404 -10583595.289 22714551.091 10 0 60229 18000.00000 0 -3010227.784 -12666060.600 21944121.665 10 0 60229 18900.00000 0 -1439383.674 -14778541.805 20747895.614 10 0 60229 19800.00000 0 -122219.762 -16857218.026 19148992.243 10 0 60229 20700.00000 0 930089.877 -18836474.925 17178350.620 10 0 60229 21600.00000 0 1718938.044 -20651535.233 14874139.026 10 0 60229 22500.00000 0 2257984.835 -22241075.130 12281023.121 10 0 60229 23400.00000 0 2572337.088 -23549717.348 9449306.108 10 0 60229 24300.00000 0 2697241.673 -24530296.514 6433956.826 10 0 60229 25200.00000 0 2676347.974 -25145801.383 3293544.158 10 0 60229 26100.00000 0 2559613.324 -25370911.690 89098.335 10 0 60229 27000.00000 0 2400940.474 -25193064.266 -3117078.518 10 0 60229 27900.00000 0 2255647.817 -24613002.689 -6262629.005 10 0 60229 28800.00000 0 2177880.407 -23644786.558 -9286359.814 10 0 60229 29700.00000 0 2218072.520 -22315259.360 -12129439.230 10 0 60229 30600.00000 0 2420570.397 -20662996.867 -14736548.685 10 0 60229 31500.00000 0 2821517.055 -18736780.046 -17056965.074 10 0 60229 32400.00000 0 3447089.839 -16593656.625 -19045552.255 10 0 60229 33300.00000 0 4312166.360 -14296672.709 -20663642.018 10 0 60229 34200.00000 0 5419476.165 -11912369.710 -21879787.271 10 0 60229 35100.00000 0 6759274.832 -9508151.477 -22670372.886 10 0 60229 36000.00000 0 8309555.057 -7149631.683 -23020072.610 10 0 60229 36900.00000 0 10036786.531 -4898072.130 -22922143.521 10 0 60229 37800.00000 0 11897154.183 -2808018.430 -22378552.753 10 0 60229 38700.00000 0 13838243.380 -925231.004 -21399934.418 10 0 60229 39600.00000 0 15801101.885 715003.237 -20005377.917 10 0 60229 40500.00000 0 17722592.575 2089109.317 -18222052.007 10 0 60229 41400.00000 0 19537938.716 3185962.462 -16084672.107 10 0 60229 42300.00000 0 21183355.432 4007096.960 -13634821.334 10 0 60229 43200.00000 0 22598657.372 4566378.599 -10920138.563 10 0 60229 44100.00000 0 23729733.504 4889156.198 -7993389.390 10 0 60229 45000.00000 0 24530785.496 5010929.544 -4911438.257 10 0 60229 45900.00000 0 24966236.047 4975591.387 -1734141.874 10 0 60229 46800.00000 0 25012227.378 4833318.921 1476814.297 10 0 60229 47700.00000 0 24657647.314 4638204.844 4659113.645 10 0 60229 48600.00000 0 23904640.236 4445728.884 7751016.633 10 0 60229 49500.00000 0 22768581.775 4310177.171 10692556.118 10 0 60229 50400.00000 0 21277518.587 4282118.850 13426696.563 10 0 60229 51300.00000 0 19471096.801 4406046.655 15900434.900 10 0 60229 52200.00000 0 17399023.953 4718281.100 18065822.149 10 0 60229 53100.00000 0 15119128.479 5245226.698 19880886.527 10 0 60229 54000.00000 0 12695097.281 6002053.810 21310440.910 10 0 60229 54900.00000 0 10193984.995 6991861.871 22326759.783 10 0 60229 55800.00000 0 7683597.760 8205359.731 22910113.222 10 0 60229 56700.00000 0 5229859.289 9621077.356 23049148.199 10 0 60229 57600.00000 0 2894267.538 11206101.194 22741110.113 10 0 60229 58500.00000 0 731546.565 12917303.729 21991900.310 10 0 60229 59400.00000 0 -1212409.953 14703017.345 20815968.200 10 0 60229 60300.00000 0 -2902219.015 16505083.999 19236039.457 10 0 60229 61200.00000 0 -4314243.247 18261196.411 17282684.738 10 0 60229 62100.00000 0 -5437329.725 19907434.020 14993736.289 10 0 60229 63000.00000 0 -6273022.342 21380888.404 12413562.687 10 0 60229 63900.00000 0 -6835239.233 22622268.629 9592214.852 10 0 60229 64800.00000 0 -7149429.196 23578377.281 6584459.150 10 0 60229 65700.00000 0 -7251242.959 24204352.883 3448715.820 10 0 60229 66600.00000 0 -7184775.716 24465583.746 245923.284 10 0 60229 67500.00000 0 -7000455.709 24339211.843 -2961649.447 10 0 60229 68400.00000 0 -6752668.774 23815162.370 -6111618.680 10 0 60229 69300.00000 0 -6497220.275 22896654.577 -9142705.851 10 0 60229 70200.00000 0 -6288742.818 21600171.462 -11995936.678 10 0 60229 71100.00000 0 -6178160.621 19954888.765 -14615795.466 10 0 60229 72000.00000 0 -6210318.991 18001586.728 -16951311.291 10 0 60229 72900.00000 0 -6421880.278 15791089.955 -18957054.343 10 0 60229 73800.00000 0 -6839576.273 13382300.591 -20594022.664 10 0 60229 74700.00000 0 -7478891.760 10839907.191 -21830401.871 10 0 60229 75600.00000 0 -8343235.521 8231865.056 -22642183.187 10 0 60229 76500.00000 0 -9423634.368 5626753.214 -23013628.037 10 0 60229 77400.00000 0 -10698963.597 3091118.199 -22937570.535 10 0 60229 78300.00000 0 -12136704.603 686914.965 -22415552.437 10 0 60229 79200.00000 0 -13694198.183 -1530849.012 -21457788.341 10 0 60229 80100.00000 0 -15320341.167 -3516169.127 -20082962.153 10 0 60229 81000.00000 0 -16957655.433 -5233713.972 -18317859.058 10 0 60229 81900.00000 0 -18544642.664 -6660042.292 -16196840.312 10 0 60229 82800.00000 0 -20018326.185 -7784317.274 -13761171.187 10 0 60229 83700.00000 0 -21316873.314 -8608490.007 -11058215.251 10 0 60229 84600.00000 0 -22382188.230 -9146946.200 -8140510.699 10 0 60229 85500.00000 0 -23162366.528 -9425632.732 -5064746.887 99